Regional Weather Roundup
Issued by NWS

Home | Current Version | Previous Version | Graphics & Text | Print | Product List | Glossary On
Versions: 1 2 3 4 5 6 7 8 9 10 11 12 13 14 15 16 17 18 19 20 21 22 23 24 25 26 27 28 29 30 31 32 33 34 35 36 37 38 39 40 41 42 43 44 45 46 47 48 49 50
000
ASUS43 KDMX 040803
RWRIA

WEATHER ROUNDUP FOR IOWA
NATIONAL WEATHER SERVICE DES MOINES IA
300 AM CDT WED MAY 04 2016

NOTE: "FAIR" INDICATES FEW OR NO CLOUDS BELOW 12,000 FEET WITH NO
SIGNIFICANT WEATHER AND/OR OBSTRUCTIONS TO VISIBILITY.

* - THESE STATIONS ARE NOT NWS STATIONS...THUS NOT UNDER NWS
QUALITY CONTROL.  THEY ALSO DO NOT REPORT WEATHER SUCH
AS PRECIPITATION OR FOG.

IAZ001>003-012>014-020>022-031>034-043>046-040900-
   NORTHWEST IOWA

CITY           SKY/WX    TMP DP  RH WIND       PRES   REMARKS
CARROLL *      CLEAR     48  37  66 NW15      29.85R
CHEROKEE *     CLEAR     46  35  64 N5        29.91R
DENISON *      CLEAR     52  36  54 N8        29.86S
LE MARS *      CLEAR     50  34  53 MISG      29.94S
ORANGE CITY *  CLEAR     48  34  57 N9        29.93R
SHELDON *      CLEAR     43  36  75 NW9       29.92R
SIOUX CITY     CLEAR     53  32  44 N15G23    29.93R
SPENCER        CLEAR     48  33  56 N14       29.90R
STORM LAKE *   CLEAR     48  34  57 N15       29.89R
$$

IAZ055>058-069>071-079>083-090>094-040900-
   SOUTHWEST IOWA

CITY           SKY/WX    TMP DP  RH WIND       PRES   REMARKS
ATLANTIC *     CLEAR     52  37  58 NW13      29.85S
AUDUBON *      CLEAR     50  37  62 NW12      29.86S
CLARINDA *       N/A    N/A N/A N/A MISG        N/A
COUNCIL BLFS * CLEAR     55  36  47 N7        29.89S
CRESTON *      CLEAR     50  43  76 NW10      29.83S
HARLAN  *      CLEAR     52  36  54 N15       29.90S
LAMONI         CLEAR     53  45  74 NW12      29.79F
RED OAK *      CLEAR     54  41  62 NW12      29.86S
SHENANDOAH *   CLEAR     57  43  58 N10       29.87S
$$

IAZ047>049-059>061-072>074-084-040900-
   CENTRAL IOWA

CITY           SKY/WX    TMP DP  RH WIND       PRES   REMARKS
AMES           CLEAR     53  34  48 N15       29.79R
ANKENY *       CLEAR     54  36  50 N14       29.78R
BOONE *        CLEAR     50  36  57 N14       29.80R
CHARITON *     CLEAR     54  43  66 NW14      29.76S
DES MOINES     PTCLDY    55  35  47 NW10      29.78S
GRINNELL*      CLEAR     52  37  58 NW13      29.74R
KNOXVILLE *    CLEAR     55  36  47 NW13G20   29.74R
MARSHALLTOWN   CLEAR     49  38  65 N13       29.76R
NEWTON *       CLEAR     54  36  50 N16       29.75R
PELLA *        CLEAR     54  39  57 NW10      29.75R
PERRY *          N/A     52  37  58 NW14      29.81S
$$

IAZ004>006-015-016-023>025-035-036-040900-
   NORTH CENTRAL IOWA

CITY           SKY/WX    TMP DP  RH WIND       PRES   REMARKS
ALGONA *       CLEAR     50  34  53 N10       29.86R
CLARION *      CLEAR     46  34  61 N12       29.83R
ESTHERVILLE    CLEAR     46  34  62 N13       29.89R
FORT DODGE *   CLEAR     48  34  57 N8        29.85R
MASON CITY     CLEAR     45  34  65 NW9       29.84R
FOREST CITY *    N/A     46  32  57 N12       29.84R
WEBSTER CITY * CLEAR     50  34  53 N15       29.80R
IOWA FALLS *     N/A     50  37  62 N9        29.80R
$$

IAZ007>011-017>019-026>030-037>042-050>054-066-040900-
   NORTHEAST IOWA

CITY           SKY/WX    TMP DP  RH WIND       PRES   REMARKS
CEDAR RAPIDS   CLEAR     47  45  93 N6        29.71R
CHARLES CITY * CLEAR     50  41  71 N9        29.80R
CLINTON *      CLEAR     47  47 100 NW5       29.70S
DECORAH *      CLEAR     50  43  76 N7        29.77R
DUBUQUE        FOG       45  45 100 N6        29.71S VSB 1/4
MONTICELLO *   CLEAR     46  46 100 N6        29.72R
OELWEIN *      CLEAR     50  46  87 N12       29.76R
WATERLOO       CLEAR     50  43  77 N13       29.76R
$$

IAZ064-065-067-068-078-040900-
   EAST CENTRAL IOWA

CITY           SKY/WX    TMP DP  RH WIND       PRES   REMARKS
DAVENPORT      MOCLDY    47  46  97 CALM      29.70R
IOWA CITY      CLEAR     49  47  93 NE3       29.72R
MT. PLEASANT * PTCLDY    59  46  63 W10       29.69S
MUSCATINE *    PTCLDY    50  46  87 CALM      29.69F
QUAD CITIES    CLEAR     49  46  90 NW3       29.69R
$$

IAZ062-063-075>077-085>089-095>099-040900-
   SOUTHEAST IOWA

CITY           SKY/WX    TMP DP  RH WIND       PRES   REMARKS
BURLINGTON     MOCLDY    55  46  71 NE7       29.69R
FAIRFIELD *    PTCLDY    55  45  67 NW13      29.69S
FORT MADISON * CLOUDY    57  45  62 W9        29.69F
KEOKUK *       CLOUDY    59  45  58 W10G17    29.68F
OSKALOOSA *      N/A     54  43  66 NW15      29.72R
OTTUMWA        CLEAR     56  42  59 NW14      29.71S
WASHINGTON *   CLEAR     52  48  87 NW7       29.70S
$$

ABBREVIATIONS USED IN REMARKS
   TC - TEMPERATURES IN CELSIUS
  WCI - WIND CHILL INDEX
   HX - HEAT INDEX
  VSB - VISIBILITY
$$




USA.gov is the U.S. government's official web portal to all federal, state and local government web resources and services.